User: anonymous   Login
Location: Ash Swamp
(41.5170°N, 74.6157°W)
Time: 19:27:31
(UTC+00:00)
Language:

Cosmos 1697 Rocket - Orbit

View from above orbital plane
View from above orbital plane
View from above satellite
View from above satellite

Ground track
Ground track

The orbit data is extracted from the following two-line orbital elements,

1 16182U 85097B   20263.53457069 +.00000225 +00000-0 +13741-3 0  9997
2 16182 071.0049 023.5465 0005772 049.2498 023.4489 14.16254800804477
Epoch (UTC): 19 September 2020 12:49:46
Eccentricity: 0.0005772
inclination: 71.0049°
perigee height: 834 km
apogee height: 842 km
right ascension of ascending node: 23.5465°
argument of perigee: 49.2498°
revolutions per day: 14.16254800
mean anomaly at epoch: 23.4489°
orbit number at epoch: 80447

The dashed part of the orbit path shows where the satellite is in the earth's shadow,  

DLR